• In Norway
  • List of Countries
  • For 7 days
  • Water Temperature
  • Satellite Maps
  • Weather Map
  • Weather Widgets
  • user-avatar
    Login

    Hourly Weather Tovarkovskiy

    Today, 15 November, Thursday

    Time Temperature Precipitation Wind Pressure Humidity
    00:00 -5°C° 0 mm 5 mps 751 mmHg 49%
    01:00 -4°C° 0 mm 4 mps 751 mmHg 51%
    02:00 -4°C° 0 mm 4 mps 751 mmHg 54%
    03:00 -5°C° 0 mm 3 mps 751 mmHg 54%
    04:00 -5°C° 0 mm 3 mps 752 mmHg 55%
    05:00 -5°C° 0 mm 3 mps 752 mmHg 56%
    06:00 -5°C° 0 mm 4 mps 752 mmHg 57%
    07:00 -5°C° 0 mm 4 mps 752 mmHg 56%
    08:00 -5°C° 0 mm 4 mps 753 mmHg 55%
    09:00 -5°C° 0 mm 4 mps 754 mmHg 54%
    10:00 -5°C° 0 mm 4 mps 754 mmHg 50%
    11:00 -4°C° 0 mm 3 mps 754 mmHg 47%
    12:00 -2°C° 0 mm 3 mps 755 mmHg 43%
    13:00 -2°C° 0 mm 3 mps 755 mmHg 42%
    14:00 -2°C° 0 mm 3 mps 755 mmHg 41%
    15:00 -2°C° 0 mm 3 mps 755 mmHg 40%
    16:00 -2°C° 0 mm 3 mps 756 mmHg 41%
    17:00 -3°C° 0 mm 2 mps 756 mmHg 43%
    18:00 -4°C° 0 mm 2 mps 756 mmHg 44%
    19:00 -4°C° 0 mm 2 mps 757 mmHg 43%
    20:00 -4°C° 0 mm 2 mps 757 mmHg 42%
    21:00 -4°C° 0 mm 2 mps 757 mmHg 41%
    22:00 -4°C° 0 mm 2 mps 757 mmHg 40%
    23:00 -4°C° 0 mm 2 mps 758 mmHg 38%

    Tomorrow, 16 November, Friday

    Time Temperature Precipitation Wind Pressure Humidity
    00:00 -4°C° 0 mm 2 mps 758 mmHg 37%
    01:00 -4°C° 0 mm 2 mps 758 mmHg 35%
    02:00 -5°C° 0 mm 2 mps 759 mmHg 34%
    03:00 -5°C° 0 mm 2 mps 759 mmHg 32%
    04:00 -5°C° 0 mm 2 mps 759 mmHg 31%
    05:00 -5°C° 0 mm 2 mps 759 mmHg 30%
    06:00 -5°C° 0 mm 2 mps 759 mmHg 29%
    07:00 -5°C° 0 mm 2 mps 759 mmHg 29%
    08:00 -5°C° 0 mm 2 mps 760 mmHg 28%
    09:00 -5°C° 0 mm 2 mps 760 mmHg 28%
    10:00 -4°C° 0 mm 2 mps 760 mmHg 26%
    11:00 -3°C° 0 mm 2 mps 760 mmHg 24%
    12:00 -2°C° 0 mm 2 mps 761 mmHg 22%
    13:00 -2°C° 0 mm 2 mps 760 mmHg 22%
    14:00 -2°C° 0 mm 2 mps 760 mmHg 22%
    15:00 0°C° 0 mm 1 mps 760 mmHg 22%
    16:00 0°C° 0 mm 1 mps 760 mmHg 23%
    17:00 -3°C° 0 mm 2 mps 760 mmHg 24%
    18:00 -3°C° 0 mm 2 mps 760 mmHg 25%
    19:00 -2°C° 0 mm 1 mps 760 mmHg 24%
    20:00 -2°C° 0 mm 1 mps 760 mmHg 24%
    21:00 -2°C° 0 mm 1 mps 760 mmHg 24%
    22:00 -2°C° 0 mm 1 mps 760 mmHg 23%
    23:00 -2°C° 0 mm 1 mps 760 mmHg 23%

    Day after tomorrow, 17 November, Saturday

    Time Temperature Precipitation Wind Pressure Humidity
    00:00 -2°C° 0 mm 1 mps 760 mmHg 22%
    01:00 -2°C° 0 mm 1 mps 760 mmHg 22%
    02:00 -3°C° 0 mm 0 mps 760 mmHg 22%
    03:00 -3°C° 0 mm 0 mps 759 mmHg 22%
    04:00 -3°C° 0 mm 0 mps 759 mmHg 21%
    05:00 -3°C° 0 mm 0 mps 759 mmHg 21%
    06:00 -2°C° 0 mm 1 mps 758 mmHg 21%
    07:00 -2°C° 0 mm 1 mps 758 mmHg 21%
    08:00 -2°C° 0 mm 1 mps 758 mmHg 21%
    09:00 -2°C° 0 mm 1 mps 758 mmHg 21%
    10:00 -1°C° 0 mm 1 mps 757 mmHg 20%
    11:00 -2°C° 0 mm 2 mps 757 mmHg 19%
    12:00 -1°C° 0 mm 2 mps 756 mmHg 18%
    13:00 -1°C° 0 mm 2 mps 756 mmHg 19%
    14:00 -1°C° 0 mm 2 mps 755 mmHg 20%
    15:00 -1°C° 0 mm 2 mps 754 mmHg 21%
    16:00 -1°C° 0 mm 3 mps 754 mmHg 22%
    17:00 -2°C° 0 mm 3 mps 753 mmHg 24%
    18:00 -4°C° 0 mm 3 mps 752 mmHg 25%
    19:00 -4°C° 0 mm 3 mps 752 mmHg 25%
    20:00 -4°C° 0 mm 3 mps 751 mmHg 26%
    21:00 -4°C° 0 mm 3 mps 750 mmHg 26%
    22:00 -4°C° 0 mm 4 mps 750 mmHg 28%
    23:00 -4°C° 0 mm 4 mps 749 mmHg 29%

    18 November, Sunday

    Time Temperature Precipitation Wind Pressure Humidity
    00:00 -4°C° 0 mm 4 mps 748 mmHg 30%
    01:00 -4°C° 0 mm 4 mps 748 mmHg 34%
    02:00 -4°C° 0 mm 4 mps 747 mmHg 38%
    03:00 -4°C° 0 mm 4 mps 747 mmHg 42%
    04:00 -4°C° 0.2 mm 4 mps 746 mmHg 51%
    05:00 -4°C° 0.2 mm 4 mps 745 mmHg 60%
    06:00 -4°C° 0.2 mm 4 mps 745 mmHg 69%
    07:00 -4°C° 0.2 mm 4 mps 744 mmHg 74%
    08:00 -4°C° 0.2 mm 4 mps 744 mmHg 79%
    09:00 -4°C° 0.2 mm 4 mps 744 mmHg 85%
    10:00 -4°C° 0.1 mm 3 mps 744 mmHg 85%
    11:00 -2°C° 0.1 mm 3 mps 744 mmHg 85%
    12:00 -2°C° 0.1 mm 3 mps 744 mmHg 84%
    13:00 -2°C° 0 mm 3 mps 744 mmHg 84%
    14:00 -2°C° 0 mm 2 mps 744 mmHg 84%
    15:00 -2°C° 0 mm 2 mps 744 mmHg 84%
    16:00 -2°C° 0 mm 2 mps 744 mmHg 85%
    17:00 -2°C° 0 mm 2 mps 744 mmHg 85%
    18:00 -2°C° 0 mm 2 mps 744 mmHg 86%
    19:00 0°C° 0 mm 1 mps 745 mmHg 86%
    20:00 0°C° 0 mm 1 mps 745 mmHg 86%
    21:00 0°C° 0 mm 1 mps 745 mmHg 85%
    22:00 -1°C° 0 mm 1 mps 745 mmHg 84%
    23:00 -1°C° 0 mm 1 mps 746 mmHg 83%

    19 November, Monday

    Time Temperature Precipitation Wind Pressure Humidity
    00:00 -3°C° 0 mm 2 mps 746 mmHg 82%
    01:00 -3°C° 0 mm 2 mps 746 mmHg 79%
    02:00 -3°C° 0 mm 2 mps 747 mmHg 77%
    03:00 -3°C° 0 mm 2 mps 747 mmHg 74%
    04:00 -3°C° 0 mm 2 mps 747 mmHg 69%
    05:00 -3°C° 0 mm 2 mps 748 mmHg 65%
    06:00 -3°C° 0 mm 2 mps 748 mmHg 61%
    07:00 -4°C° 0 mm 2 mps 748 mmHg 56%
    08:00 -4°C° 0 mm 2 mps 749 mmHg 52%
    09:00 -4°C° 0 mm 2 mps 750 mmHg 48%
    10:00 -3°C° 0 mm 2 mps 750 mmHg 45%
    11:00 -3°C° 0 mm 2 mps 751 mmHg 41%
    12:00 -2°C° 0 mm 2 mps 751 mmHg 37%
    13:00 -2°C° 0 mm 2 mps 751 mmHg 40%
    14:00 -2°C° 0 mm 2 mps 752 mmHg 42%
    15:00 -2°C° 0 mm 2 mps 752 mmHg 44%
    16:00 -3°C° 0 mm 2 mps 752 mmHg 46%
    17:00 -4°C° 0 mm 2 mps 752 mmHg 48%
    18:00 -4°C° 0 mm 2 mps 753 mmHg 49%
    19:00 -4°C° 0 mm 2 mps 753 mmHg 50%
    20:00 -4°C° 0 mm 2 mps 753 mmHg 51%
    21:00 -5°C° 0 mm 2 mps 753 mmHg 52%
    22:00 -5°C° 0 mm 2 mps 753 mmHg 52%
    23:00 -5°C° 0 mm 2 mps 753 mmHg 53%

    20 November, Tuesday

    Time Temperature Precipitation Wind Pressure Humidity
    00:00 -5°C° 0 mm 2 mps 753 mmHg 53%
    01:00 -5°C° 0 mm 2 mps 753 mmHg 53%
    02:00 -5°C° 0 mm 2 mps 753 mmHg 54%
    03:00 -5°C° 0 mm 2 mps 753 mmHg 54%
    04:00 -6°C° 0 mm 2 mps 753 mmHg 54%
    05:00 -6°C° 0 mm 2 mps 753 mmHg 54%
    06:00 -6°C° 0 mm 2 mps 753 mmHg 54%
    07:00 -6°C° 0 mm 2 mps 753 mmHg 53%
    08:00 -6°C° 0 mm 2 mps 753 mmHg 52%
    09:00 -6°C° 0 mm 2 mps 753 mmHg 51%
    10:00 -5°C° 0 mm 2 mps 753 mmHg 48%
    11:00 -4°C° 0 mm 2 mps 753 mmHg 45%
    12:00 -3°C° 0 mm 2 mps 753 mmHg 42%
    13:00 -3°C° 0 mm 2 mps 752 mmHg 43%
    14:00 -3°C° 0 mm 2 mps 752 mmHg 44%
    15:00 -3°C° 0 mm 2 mps 752 mmHg 44%
    16:00 -4°C° 0 mm 2 mps 752 mmHg 45%
    17:00 -4°C° 0 mm 2 mps 751 mmHg 45%
    18:00 -4°C° 0 mm 2 mps 751 mmHg 46%
    19:00 -4°C° 0 mm 2 mps 751 mmHg 46%
    20:00 -5°C° 0 mm 2 mps 751 mmHg 45%
    21:00 -5°C° 0 mm 2 mps 751 mmHg 45%
    22:00 -5°C° 0 mm 2 mps 751 mmHg 45%
    23:00 -5°C° 0 mm 2 mps 751 mmHg 45%
    Show more